Location: Artiguedieu
(43.5000°N, 0.5454°E)
Time: 09:58:16
(UTC+00:00)

Explorer 7 - Pass Details

Date: 10 August 2021
Orbit: 484 x 676 km, 50.3° (Epoch: 22 September)

Event Time Altitude Azimuth Distance (km) Brightness Sun altitude
Rises 07:33:12 0° 296° (WNW) 2,607 9.8 26.8°
Reaches altitude 10° 07:35:23 10° 291° (WNW) 1,743 8.9 27.2°
Maximum altitude 07:39:12 49° 216° (SW) 695 7.4 27.9°
Drops below altitude 10° 07:43:14 10° 142° (SE) 1,838 10.2 28.6°
Sets 07:45:35 0° 137° (SE) 2,767 11.1 29.0°
